This demonstration page uses our WeatherBlox Daily Observations layout. Learn more.

Left ArrowRight Arrow

39.08367, -84.50855

Hourly Observations for May 3, 2019

Temp ( °F °C ) Dew Point ( °F °C ) Humidity (%) Winds ( mph kmh ) Pressure ( in mb ) Visibility ( mi km ) Precip ( " mm )
12:53 am 00:53 Clear 63 17.2 61 16.1 93 93 Calm 30.03 1017 7 11.26538 0 0
1:44 am 01:44 Mostly Clear with Mist and Fog 61 16.1 60 15.6 97 97 Calm 30.03 1017 1.25 2.011675 0 0
1:53 am 01:53 Partly Cloudy with Mist and Fog 61 16.1 60 15.6 97 97 Calm 30.02 1017 1.25 2.011675 0 0
1:55 am 01:55 Partly Cloudy with Mist and Fog 61 16.1 60 15.6 97 97 Calm 30.03 1017 3 4.82802 0 0
2:23 am 02:23 Mostly Cloudy with Mist and Fog 61 16.1 60 15.6 97 97 Calm 30.02 1016 1.75 2.816345 0 0
2:35 am 02:35 Mostly Cloudy with Fog 61 16.1 60 15.6 97 97 Calm 30.01 1016 0.5 0.80467 0 0
2:41 am 02:41 Cloudy with Mist and Fog 61 16.1 60 15.6 97 97 Calm 30.01 1016 2.5 4.02335 0 0
2:48 am 02:48 Cloudy with Mist and Fog 61 16 61 16 100 100 Calm 30.01 1016 1 1.60934 0 0
2:53 am 02:53 Mostly Cloudy with Mist and Fog 61 16.1 60 15.6 97 97 Calm 30 1016 1 1.60934 0 0
2:59 am 02:59 Mostly Cloudy with Mist and Fog 60 15.6 60 15.6 100 100 Calm 30.01 1016 5 8.0467 0 0
3:02 am 03:02 Mostly Cloudy with Mist and Fog 60 15.6 59 15 96 96 Calm 30.01 1016 1.5 2.41401 0 0
3:05 am 03:05 Mostly Cloudy with Mist and Fog 60 15.6 59 15 96 96 Calm 30 1016 0.75 1.207005 0 0
3:17 am 03:17 Mostly Cloudy with Fog 61 16.1 60 15.6 97 97 Calm 30 1016 0.25 0.402335 0 0
3:53 am 03:53 Mostly Cloudy with Fog 61 16.1 61 16.1 100 100 Calm 29.99 1016 0.25 0.402335 0 0
4:48 am 04:48 Cloudy with Light Rain 63 17 63 17 100 100 S 3 6 30 1016 0.5 0.80467 0 0.0254
4:53 am 04:53 Cloudy with Light Rain 62 16.7 61 16.1 96 96 Calm 30.01 1016 0.75 1.207005 0.01 0.254
5:02 am 05:02 Cloudy with Rain 62 16.7 61 16.1 96 96 Calm 30 1016 1 1.60934 0.03 0.762
5:17 am 05:17 Cloudy with Rain 62 16.7 61 16.1 96 96 NNE 5 7 29.99 1016 2.5 4.02335 0.07 1.778
5:36 am 05:36 Cloudy with Light Rain 62 16.7 61 16.1 96 96 NNE 3 6 29.99 1016 4 6.43736 0.11 2.794
5:53 am 05:53 Cloudy with Light Rain 62 16.7 61 16.1 96 96 ENE 3 6 29.99 1016 5 8.0467 0.11 2.794
6:53 am 06:53 Cloudy with Rain 62 16.7 62 16.7 100 100 W 6 9 30 1016 3 4.82802 0.05 1.27
7:20 am 07:20 Cloudy with Light Rain 62 16.7 62 16.7 100 100 SSW 3 6 30.01 1016 3 4.82802 0.07 1.778
7:37 am 07:37 Cloudy with Light Rain 62 16.7 62 16.7 100 100 ENE 5 7 29.99 1016 3 4.82802 0.1 2.54
7:53 am 07:53 Cloudy with Light Rain 63 17.2 62 16.7 97 97 Calm 30 1016 5 8.0467 0.1 2.54
8:02 am 08:02 Cloudy with Light Rain 63 17.2 62 16.7 97 97 Calm 30 1016 6 9.65604 0.01 0.254
8:12 am 08:12 Cloudy with Rain 63 17.2 62 16.7 97 97 Calm 30 1016 4 6.43736 0.02 0.508
8:53 am 08:53 Cloudy with Light Rain 63 17.2 62 16.7 97 97 ENE 3 6 30 1016 6 9.65604 0.04 1.016
9:07 am 09:07 Cloudy 64 17.8 63 17.2 96 96 Calm 30 1016 9 14.48406 0 0.0254
9:32 am 09:32 Cloudy with Rain 64 17.8 63 17.2 96 96 Calm 30 1016 2.5 4.02335 0.03 0.762
9:53 am 09:53 Cloudy with Rain 64 17.8 63 17.2 96 96 ENE 3 6 30 1016 3 4.82802 0.09 2.286
10:43 am 10:43 Cloudy with Heavy Rain 64 17.8 63 17.2 96 96 E 5 7 29.99 1016 2.5 4.02335 0.08 2.032
10:53 am 10:53 Cloudy with Rain 65 18.3 63 17.2 93 93 E 3 6 29.99 1016 3 4.82802 0.1 2.54
11:53 am 11:53 Cloudy with Light Rain 66 18.9 63 17.2 90 90 ESE 3 6 29.98 1015 7 11.26538 0.06 1.524
12:53 pm 12:53 Partly Cloudy 69 20.6 63 17.2 81 81 SE 3 6 29.97 1015 10 16.0934 0.01 0.254
1:33 pm 13:33 Cloudy 69 20.6 62 16.7 78 78 SSW 3 6 29.96 1014 10 16.0934 0 0
1:53 pm 13:53 Mostly Cloudy 70 21.1 63 17.2 79 79 VRB 3 6 29.96 1014 10 16.0934 0 0
2:53 pm 14:53 Mostly Cloudy 69 20.6 63 17.2 81 81 Calm 29.93 1014 10 16.0934 0 0
3:00 pm 15:00 Cloudy 70 21.1 63 17.2 79 79 S 3 6 29.93 1013 10 16.0934 0 0
3:53 pm 15:53 Mostly Cloudy 72 22.2 61 16.1 68 68 NNE 3 6 29.92 1013 10 16.0934 0 0
4:02 pm 16:02 Cloudy 72 22.2 62 16.7 71 71 VRB 3 6 29.91 1013 10 16.0934 0 0
4:19 pm 16:19 Cloudy 71 21.7 62 16.7 73 73 Calm 29.92 1013 10 16.0934 0 0
4:32 pm 16:32 Mostly Cloudy 71 21.7 62 16.7 73 73 VRB 3 6 29.92 1013 10 16.0934 0 0
4:40 pm 16:40 Cloudy 71 21.7 63 17.2 76 76 ENE 7 11 29.91 1013 10 16.0934 0 0
4:53 pm 16:53 Cloudy 70 21.1 62 16.7 76 76 NE 7 11 29.92 1013 10 16.0934 0 0
5:53 pm 17:53 Sunny 71 21.7 62 16.7 73 73 ENE 3 6 29.91 1013 10 16.0934 0 0
6:53 pm 18:53 Sunny 71 21.7 62 16.7 73 73 Calm 29.91 1013 10 16.0934 0 0
7:53 pm 19:53 Partly Cloudy 71 21.7 63 17.2 76 76 Calm 29.91 1013 10 16.0934 0 0
8:53 pm 20:53 Mostly Cloudy 68 20 61 16.1 78 78 NW 9 15 29.93 1014 10 16.0934 0 0
9:53 pm 21:53 Cloudy 66 18.9 60 15.6 81 81 N 9 15 29.94 1014 10 16.0934 0 0
10:42 pm 22:42 Mostly Cloudy 65 18.3 59 15 81 81 N 6 9 29.96 1015 10 16.0934 0 0
10:53 pm 22:53 Cloudy 65 18.3 59 15 81 81 VRB 6 9 29.96 1015 10 16.0934 0 0
11:53 pm 23:53 Cloudy 64 17.8 59 15 84 84 N 6 9 29.96 1014 9 14.48406 0 0

Powered by AerisWeather